Regional Weather Roundup
Issued by NWS

Home | Current Version | Previous Version | Graphics & Text | Print | Product List | Glossary On
Versions: 1 2 3 4 5 6 7 8 9 10 11 12 13 14 15 16 17 18 19 20 21 22 23 24 25 26 27 28 29 30 31 32 33 34 35 36 37 38 39 40 41 42 43 44 45 46 47 48 49 50
000
ASUS43 KOAX 161710
RWRNE

WEATHER ROUNDUP FOR NEBRASKA
NATIONAL WEATHER SERVICE OMAHA NE
1100 AM CST TUE JAN 16 2018

NOTES: SATELLITE DATA IS BEING USED TO AUGMENT CLOUD COVER ABOVE
       12000 FEET.
       "FAIR" INDICATES FEW OR NO CLOUDS BELOW 12,000 FEET WITH NO
       SIGNIFICANT WEATHER AND/OR OBSTRUCTIONS TO VISIBILITY.


NEZ001>004-019>022-054>056-161800-
NEBRASKA PANHANDLE

CITY           SKY/WX    TMP DP  RH WIND       PRES   REMARKS
SCOTTSBLUFF    SUNNY      0  -5  79 CALM      30.52F
ALLIANCE       SUNNY     -3  -6  87 S3        30.51F
CHADRON        SUNNY      7   0  73 CALM      30.52F
GORDON         FAIR       5  -4  66 SW7       30.52F WCI  -7
KIMBALL        SUNNY     17   6  63 W7        30.45R WCI   7
SIDNEY         SUNNY     14   2  58 W8        30.51S WCI   3
$$

NEZ057>060-069>072-079>082-161800-
SOUTHWEST NEBRASKA

CITY           SKY/WX    TMP DP  RH WIND       PRES   REMARKS
NORTH PLATTE   SUNNY      4  -8  57 NW3       30.68R
IMPERIAL       SUNNY      7  -2  66 W3        30.63S
LEXINGTON      SUNNY      5  -6  61 NW7       30.71S WCI  -7
MCCOOK         SUNNY      7  -4  60 NW7       30.71S WCI  -5
OGALLALA       SUNNY      7  -1  70 CALM      30.63S
$$

NEZ005>010-023>029-035>040-094-161800-
NORTH CENTRAL NEBRASKA

CITY           SKY/WX    TMP DP  RH WIND       PRES   REMARKS
VALENTINE      SUNNY      2  -8  63 SW8       30.64F WCI -12
AINSWORTH      SUNNY      2  -9  58 W3        30.66S
BROKEN BOW     SUNNY      2  -9  60 N5        30.69R WCI  -8
O`NEILL        SUNNY     -1  -8  72 NW10      30.72R WCI -17
ORD            MOSUNNY    0  -4  83 NW10      30.72F WCI -16
THEDFORD       SUNNY      3 -11  52 W3        30.64F
$$

NEZ041-046>049-061>064-073>077-083>087-161800-
SOUTH CENTRAL NEBRASKA

CITY           SKY/WX    TMP DP  RH WIND       PRES   REMARKS
GRAND ISLAND   SUNNY      4  -2  76 NW13      30.75R WCI -13
AURORA         SUNNY      6  -1  73 N14       30.75R WCI -11
HASTINGS       SUNNY      2  -4  76 NW14      30.74R WCI -16
HEBRON         SUNNY      7   0  73 N12       30.78S WCI  -9
HOLDREGE       SUNNY      3  -4  72 NW10      30.72R WCI -12
KEARNEY        SUNNY      0  -8  69 NW10      30.74R WCI -16
YORK           SUNNY      7   1  78 N10G16    30.75R WCI  -8
$$

NEZ011>018-030>034-042>045-161800-
NORTHEAST NEBRASKA

CITY           SKY/WX    TMP DP  RH WIND       PRES   REMARKS
NORFOLK        SUNNY      2  -5  72 NW15      30.73S WCI -17
ALBION         SUNNY      5  -3  68 NW14      30.73F WCI -12
BLAIR          CLOUDY     1  -5  74 NW10      30.74S WCI -15
COLUMBUS       SUNNY      8  -1  66 NW12      30.77S WCI  -7
FREMONT        MOSUNNY    3  -4  72 N8        30.78R WCI -10
TEKAMAH        CLOUDY     1  -7  68 NW9       30.79S WCI -14
WAYNE          PTSUNNY   -1  -8  71 NW13      30.76S WCI -19
$$

NEZ050>053-065>068-078-088>093-161800-
SOUTHEAST NEBRASKA

CITY           SKY/WX    TMP DP  RH WIND       PRES   REMARKS
LINCOLN        SUNNY      6  -3  66 N12       30.79F WCI  -9
OMAHA EPPLEY   FLURRIES   2  -5  72 NW13      30.78S WCI -15
BEATRICE       CLOUDY     5  -2  73 NW10      30.78R WCI -10
FALLS CITY     PTSUNNY    2  -6  69 NW14G21   30.79R WCI -16
NEBRASKA CITY  SUNNY      3  -3  75 NW13      30.77R WCI -14
PLATTSMOUTH    CLOUDY     2  -4  76 NW14      30.75F WCI -16
$$

NEZ044-045-051>053-067-161800-
OMAHA AREA

CITY           SKY/WX    TMP DP  RH WIND       PRES   REMARKS
OMAHA EPPLEY   FLURRIES   2  -5  72 NW13      30.78S WCI -15
BLAIR          CLOUDY     1  -5  74 NW10      30.74S WCI -15
FREMONT        MOSUNNY    3  -4  72 N8        30.78R WCI -10
MILLARD        CLOUDY     3  -5  69 NW10      30.79S WCI -12
OFFUTT AFB     CLOUDY     2  -6  67 NW10      30.77S WCI -14
PLATTSMOUTH    CLOUDY     2  -4  76 NW14      30.75F WCI -16
WAHOO          PTSUNNY    4  -3  72 N13       30.78R WCI -13
$$




USA.gov is the U.S. government's official web portal to all federal, state and local government web resources and services.